Change the Weather History Date:

Friday, September 13, 2013

  Actual Average Record
Temperature  
Mean Temperature - -  
Max Temperature - 87 °F 91 °F (2011)
Min Temperature - 62 °F 57 °F (2012)
Moisture  
Dew Point -    
Average Humidity    
Maximum Humidity    
Minimum Humidity    
Precipitation  
Precipitation 0.00 in - - ()
Sea Level Pressure  
Sea Level Pressure 29.82 in    
Wind  
Wind Speed 4 mph (NNW)    
Max Wind Speed 9 mph    
Max Gust Speed -    
Visibility 10 miles    
Events      
Averages and records for this station are not official NWS values.
T = Trace of Precipitation, MM = Missing Value Source: NWS Daily Summary

Daily Weather History Graph

Daily Weather History Graph

Search for Another Location

Airport or City:

Trip Planner

Search our weather history database for the weather conditions in past years. The results will help you decide how hot, cold, wet, or windy it might be!

Date:

Astronomy

Sep. 13, 2013 Rise Set
Actual Time 7:03 AM EDT 7:30 PM EDT
Civil Twilight 6:38 AM EDT 7:55 PM EDT
Nautical Twilight 6:08 AM EDT 8:24 PM EDT
Astronomical Twilight 5:38 AM EDT 8:54 PM EDT
Moon 3:07 PM EDT (9/13) 12:43 AM EDT (9/13)
Length of Visible Light 13h 17m
Length of Day
12h 27m
First Quarter, 61% of the Moon is Illuminated
Sep 13
First Quarter
Sep 19
Full
Sep 26
Last Quarter
Oct 4
New
Oct 11
First Quarter

Hourly Weather History & Observations

Time (EDT) Temp. Dew Point Humidity Pressure Visibility Wind Dir Wind Speed Gust Speed Precip Events Conditions
12:15 AM - - N/A% 29.88 in 10.0 mi SW 6.9 mph - N/A   Partly Cloudy
12:35 AM - - N/A% 29.87 in 10.0 mi Calm Calm - N/A   Clear
12:55 AM - - N/A% 29.87 in 10.0 mi SW 6.9 mph - N/A   Clear
1:15 AM - - N/A% 29.86 in 10.0 mi SW 6.9 mph - N/A   Clear
1:35 AM - - N/A% 29.85 in 10.0 mi SW 5.8 mph - N/A   Clear
1:55 AM - - N/A% 29.85 in 10.0 mi WSW 4.6 mph - N/A   Clear
2:15 AM - - N/A% 29.84 in 10.0 mi WSW 5.8 mph - N/A   Clear
2:35 AM - - N/A% 29.83 in 10.0 mi WSW 5.8 mph - N/A   Clear
2:55 AM - - N/A% 29.82 in 10.0 mi WSW 5.8 mph - N/A   Clear
3:15 AM - - N/A% 29.82 in 10.0 mi WSW 5.8 mph - N/A   Clear
3:35 AM - - N/A% 29.81 in 10.0 mi WSW 4.6 mph - N/A   Clear
3:55 AM - - N/A% 29.81 in 10.0 mi Calm Calm - N/A   Clear
4:15 AM - - N/A% 29.81 in 10.0 mi Calm Calm - N/A   Clear
4:35 AM - - N/A% 29.81 in 10.0 mi Calm Calm - N/A   Clear
4:55 AM - - N/A% 29.81 in 10.0 mi Calm Calm - N/A   Clear
5:15 AM - - N/A% 29.81 in 10.0 mi Calm Calm - N/A   Clear
5:35 AM - - N/A% 29.81 in 10.0 mi Calm Calm - N/A   Clear
5:55 AM - - N/A% 29.81 in 10.0 mi Calm Calm - N/A   Clear
6:15 AM - - N/A% 29.82 in 9.0 mi Calm Calm - N/A   Clear
6:35 AM - - N/A% 29.82 in 8.0 mi Calm Calm - N/A   Clear
6:55 AM - - N/A% 29.83 in 7.0 mi Calm Calm - N/A   Clear
7:15 AM - - N/A% 29.83 in 7.0 mi Calm Calm - N/A   Clear
7:35 AM - - N/A% 29.83 in 7.0 mi Calm Calm - N/A   Clear
7:55 AM - - N/A% 29.84 in 7.0 mi Calm Calm - N/A   Clear
8:15 AM - - N/A% 29.84 in 10.0 mi Calm Calm - N/A   Clear
8:35 AM - - N/A% 29.84 in 10.0 mi Calm Calm - N/A   Clear
8:55 AM - - N/A% 29.85 in 10.0 mi Calm Calm - N/A   Clear
9:15 AM - - N/A% 29.85 in 10.0 mi NNW 4.6 mph - N/A   Clear
9:35 AM - - N/A% 29.85 in 10.0 mi Calm Calm - N/A   Clear
9:55 AM - - N/A% 29.85 in 10.0 mi NNW 5.8 mph - N/A   Clear
10:15 AM - - N/A% 29.85 in 10.0 mi NNE 9.2 mph - N/A   Clear
10:35 AM - - N/A% 29.85 in 10.0 mi North 8.1 mph - N/A   Clear
10:55 AM - - N/A% 29.85 in 10.0 mi NNE 8.1 mph - N/A   Clear
11:15 AM - - N/A% 29.84 in 10.0 mi NE 8.1 mph - N/A   Clear
11:35 AM - - N/A% 29.85 in 10.0 mi North 6.9 mph - N/A   Clear
11:55 AM - - N/A% 29.84 in 10.0 mi NE 6.9 mph - N/A   Clear
12:15 PM - - N/A% 29.84 in 10.0 mi NNE 8.1 mph - N/A   Clear
12:35 PM - - N/A% 29.83 in 10.0 mi NNE 6.9 mph - N/A   Clear
12:55 PM - - N/A% 29.83 in 10.0 mi ENE 4.6 mph - N/A   Clear
1:15 PM - - N/A% 29.82 in 10.0 mi NE 5.8 mph - N/A   Clear
1:35 PM - - N/A% 29.81 in 10.0 mi SSE 3.5 mph - N/A   Clear
1:55 PM - - N/A% 29.80 in 10.0 mi East 3.5 mph - N/A   Clear
2:15 PM - - N/A% 29.80 in 10.0 mi NNE 4.6 mph - N/A   Clear
2:35 PM - - N/A% 29.79 in 10.0 mi NE 3.5 mph - N/A   Clear
2:55 PM - - N/A% 29.79 in 10.0 mi Calm Calm - N/A   Partly Cloudy
3:15 PM - - N/A% 29.78 in 10.0 mi Calm Calm - N/A   Partly Cloudy
3:35 PM - - N/A% 29.78 in 10.0 mi Calm Calm - N/A   Scattered Clouds
3:55 PM - - N/A% 29.77 in 10.0 mi NNW 5.8 mph - N/A   Scattered Clouds
4:15 PM - - N/A% 29.77 in 10.0 mi Calm Calm - N/A   Partly Cloudy
4:35 PM - - N/A% 29.77 in 10.0 mi Calm Calm - N/A   Scattered Clouds
4:55 PM - - N/A% 29.77 in 10.0 mi NW 5.8 mph - N/A   Scattered Clouds
5:15 PM - - N/A% 29.77 in 10.0 mi NW 9.2 mph - N/A   Partly Cloudy
5:35 PM - - N/A% 29.77 in 10.0 mi NW 4.6 mph - N/A   Clear
5:55 PM - - N/A% 29.77 in 10.0 mi WNW 6.9 mph - N/A   Clear
6:15 PM - - N/A% 29.77 in 10.0 mi NW 5.8 mph - N/A   Clear
6:35 PM - - N/A% 29.77 in 10.0 mi NNW 5.8 mph - N/A   Clear
6:55 PM - - N/A% 29.78 in 10.0 mi Calm Calm - N/A   Clear
7:15 PM - - N/A% 29.79 in 10.0 mi Calm Calm - N/A   Clear
7:35 PM - - N/A% 29.80 in 10.0 mi Calm Calm - N/A   Partly Cloudy
7:55 PM - - N/A% 29.80 in 10.0 mi Calm Calm - N/A   Mostly Cloudy
8:15 PM - - N/A% 29.81 in 10.0 mi Calm Calm - N/A   Partly Cloudy
8:35 PM - - N/A% 29.81 in 10.0 mi Calm Calm - N/A   Clear
8:55 PM - - N/A% 29.82 in 10.0 mi Calm Calm - N/A   Clear
9:15 PM - - N/A% 29.83 in 10.0 mi Calm Calm - N/A   Clear
9:35 PM - - N/A% 29.84 in 10.0 mi Calm Calm - N/A   Partly Cloudy
9:55 PM - - N/A% 29.84 in 10.0 mi Calm Calm - N/A   Partly Cloudy
10:15 PM - - N/A% 29.84 in 10.0 mi Calm Calm - N/A   Mostly Cloudy
10:35 PM - - N/A% 29.85 in 10.0 mi Calm Calm - N/A   Scattered Clouds
10:55 PM - - N/A% 29.86 in 10.0 mi NNE 9.2 mph - N/A   Mostly Cloudy
11:15 PM - - N/A% 29.86 in 10.0 mi NNE 5.8 mph - N/A   Mostly Cloudy
11:35 PM - - N/A% 29.86 in 10.0 mi NNE 6.9 mph - N/A   Mostly Cloudy
11:55 PM - - N/A% 29.86 in 10.0 mi NNE 8.1 mph - N/A   Scattered Clouds